Powrót do katalogu

ADEOS

AktywnyNaukaSSO
NORAD 24277·PAYLOAD·🇯🇵 Japan

Wystrzelony Aug 17, 1996 z Tanegashima Space Center

Loading…

Następne Przeloty (najbliższe 24 godziny)

TLE

ŚwieżeSource: Space-Track

Epoka: Sep 14, 2026, 13:25 UTC

1 24277U 96046A   26257.55907670  .00000046  00000-0  35084-4 0  9992
2 24277  98.7910 312.9500 0001269 158.8739 201.2495 14.30415672568440

Śledź ADEOS w czasie rzeczywistym z AllMySat

Download on the App Store